Location: Praha
(50.0755°N, 14.4378°E)
Time: 22:35:23
(UTC+01:00)

ISS - Pass Details

Date: 26 January 2020
Orbit: 415 x 423 km, 51.6° (Epoch: 25 February)

Event Time Altitude Azimuth Distance (km) Brightness Sun altitude
Rises 19:59:02 0° 276° (W) 2,379 1.2 -30.9°
Reaches altitude 10° 20:01:09 10° 279° (W) 1,512 -0.1 -31.2°
Enters shadow 20:01:34 13° 280° (W) 1,348 -0.4 -31.3°
